Sacramento, CA

2:45 PM PDT on September 25, 2016 (GMT -0700)
Sacramento Executive

Weather History for KSAC - September, 2014

Change the Weather History Date:

Wednesday, September 17, 2014

  Actual Average Record
Temperature  
Mean Temperature 76 °F -  
Max Temperature 89 °F 87 °F 100 °F (1984)
Min Temperature 62 °F 56 °F 48 °F (2006)
Degree Days  
Heating Degree Days 0    
Cooling Degree Days 11    
Growing Degree Days 25 (Base 50)    
Moisture  
Dew Point 54 °F    
Average Humidity 54    
Maximum Humidity 78    
Minimum Humidity 29    
Precipitation  
Precipitation 0.00 in 0.01 in 0.35 in (1950)
Month to date precipitation 0.00 0.13  
Year to date precipitation 7.90 12.08  
Since 1 July precipitation 0.01  
Sea Level Pressure  
Sea Level Pressure 29.76 in    
Wind  
Wind Speed 6 mph (SSW)    
Max Wind Speed 18 mph    
Max Gust Speed 25 mph    
Visibility 10 miles    
Events      
T = Trace of Precipitation, MM = Missing Value Source: NWS Daily Summary

Daily Weather History Graph

Daily Weather History Graph

Search for Another Location

Airport or City:

Trip Planner

Search our weather history database for the weather conditions in past years. The results will help you decide how hot, cold, wet, or windy it might be!

Date:

Astronomy

Sep. 17, 2014 Rise Set
Actual Time 6:49 AM PDT 7:10 PM PDT
Civil Twilight 6:22 AM PDT 7:37 PM PDT
Nautical Twilight 5:51 AM PDT 8:08 PM PDT
Astronomical Twilight 5:19 AM PDT 8:40 PM PDT
Moon 12:57 AM PDT (9/17) 3:21 PM PDT (9/17)
Length of Visible Light 13h 14m
Length of Day
12h 21m
Waning Crescent, 34% of the Moon is Illuminated
Sep 17
Waning Crescent
Sep 23
New
Oct 1
First Quarter
Oct 8
Full
Oct 15
Last Quarter

Hourly Weather History & Observations

Time (PDT) Temp. Dew Point Humidity Pressure Visibility Wind Dir Wind Speed Gust Speed Precip Events Conditions
12:53 AM 68.0 °F 52.0 °F 56% 29.78 in 10.0 mi SSW 5.8 mph - N/A   Clear
1:53 AM 66.0 °F 53.1 °F 63% 29.78 in 10.0 mi Calm Calm - N/A   Clear
2:53 AM 64.0 °F 54.0 °F 70% 29.78 in 10.0 mi SSE 4.6 mph - N/A   Clear
3:53 AM 64.0 °F 55.0 °F 73% 29.76 in 10.0 mi SSE 3.5 mph - N/A   Clear
4:53 AM 63.0 °F 55.0 °F 75% 29.77 in 10.0 mi Calm Calm - N/A   Clear
5:53 AM 63.0 °F 54.0 °F 72% 29.77 in 10.0 mi SSE 3.5 mph - N/A   Clear
6:53 AM 62.1 °F 55.0 °F 78% 29.78 in 10.0 mi South 3.5 mph - N/A   Clear
7:53 AM 64.0 °F 57.0 °F 78% 29.79 in 10.0 mi South 5.8 mph - N/A   Clear
8:53 AM 66.9 °F 55.9 °F 68% 29.80 in 10.0 mi South 5.8 mph - N/A   Clear
9:53 AM 71.1 °F 54.0 °F 55% 29.80 in 10.0 mi SSW 8.1 mph - N/A   Clear
10:53 AM 75.2 °F 53.6 °F 47% 29.80 in 10.0 mi SSW 8.1 mph - N/A   Clear
11:53 AM 79.0 °F 54.0 °F 42% 29.79 in 10.0 mi South 5.8 mph - N/A   Clear
12:53 PM 82.9 °F 52.0 °F 34% 29.77 in 10.0 mi SSW 5.8 mph - N/A   Clear
1:53 PM 86.0 °F 50.0 °F 29% 29.74 in 10.0 mi SSW 6.9 mph - N/A   Clear
2:53 PM 88.0 °F 51.1 °F 28% 29.73 in 10.0 mi WSW 10.4 mph - N/A   Clear
3:53 PM 88.0 °F 51.1 °F 28% 29.71 in 10.0 mi WSW 9.2 mph - N/A   Clear
4:53 PM 86.0 °F 52.0 °F 31% 29.70 in 10.0 mi WSW 16.1 mph 23.0 mph N/A   Clear
5:53 PM 82.0 °F 45.0 °F 27% 29.70 in 10.0 mi SW 10.4 mph 18.4 mph N/A   Clear
6:53 PM 78.1 °F 48.9 °F 36% 29.70 in 10.0 mi SW 16.1 mph - N/A   Clear
7:53 PM 73.9 °F 54.0 °F 50% 29.72 in 10.0 mi SW 11.5 mph - N/A   Clear
8:53 PM 72.0 °F 55.0 °F 55% 29.74 in 10.0 mi SW 10.4 mph 18.4 mph N/A   Clear
9:53 PM 71.1 °F 57.0 °F 61% 29.75 in 10.0 mi SW 11.5 mph - N/A   Clear
10:53 PM 71.1 °F 59.0 °F 66% 29.77 in 10.0 mi Variable 4.6 mph - N/A   Clear
11:53 PM 70.0 °F 61.0 °F 73% 29.78 in 10.0 mi SSW 5.8 mph - N/A   Clear